This demonstration page uses our WeatherBlox Daily Observations layout. Learn more.

Left ArrowRight Arrow

47.50024, -111.30081

Hourly Observations for May 4, 2015

Temp ( °F °C ) Dew Point ( °F °C ) Humidity (%) Winds ( mph kmh ) Pressure ( in mb ) Visibility ( mi km ) Precip ( " mm )
12:53 am 00:53 Clear 45 7.2 32 0 61 61 E 5 7 29.96 1014 10 16 0.00 0.00
1:53 am 01:53 Clear 43 6.1 32 0 65 65 E 5 7 29.96 1014 10 16 0.00 0.00
2:53 am 02:53 Clear 38 3.3 31 -0.6 76 76 SW 5 7 29.96 1015 10 16 0.00 0.00
3:53 am 03:53 Clear 41 5 30 -1.1 65 65 Calm 29.94 1014 10 16 0.00 0.00
4:53 am 04:53 Clear 36 2.2 28 -2.2 73 73 SW 9 15 29.95 1014 10 16 0.00 0.00
5:53 am 05:53 Clear 36 2.2 27 -2.8 70 70 Calm 29.95 1014 10 16 0.00 0.00
6:53 am 06:53 Sunny 37 2.8 28 -2.2 70 70 Calm 29.96 1015 10 16 0.00 0.00
7:53 am 07:53 Sunny 44 6.7 31 -0.6 60 60 Calm 29.95 1014 10 16 0.00 0.00
8:53 am 08:53 Sunny 51 10.6 33 0.6 50 50 SW 3 6 29.94 1014 10 16 0.00 0.00
9:53 am 09:53 Sunny 58 14.4 37 2.8 46 46 VRB 3 6 29.92 1013 10 16 0.00 0.00
10:53 am 10:53 Sunny 60 15.6 35 1.7 39 39 VRB 5 7 29.92 1013 10 16 0.00 0.00
11:53 am 11:53 Sunny 64 17.8 37 2.8 37 37 Calm 29.89 1012 10 16 0.00 0.00
12:53 pm 12:53 Sunny 68 20 37 2.8 32 32 VRB 3 6 29.86 1011 10 16 0.00 0.00
1:53 pm 13:53 Sunny 71 21.7 35 1.7 27 27 E 8 13 29.84 1010 10 16 0.00 0.00
2:53 pm 14:53 Sunny 73 22.8 27 -2.8 18 18 S 7 11 29.82 1010 10 16 0.00 0.00
3:53 pm 15:53 Mostly Sunny 75 23.9 25 -3.9 15 15 SSE 7 11 29.78 1008 10 16 0.00 0.00
4:53 pm 16:53 Sunny 76 24.4 23 -5 14 14 SSW 12 19 29.76 1008 10 16 0.00 0.00
5:53 pm 17:53 Sunny 76 24.4 12 -11.1 9 9 WSW 15 24 29.76 1008 10 16 0.00 0.00
6:53 pm 18:53 Sunny 74 23.3 12 -11.1 9 9 W 13 20 29.75 1008 10 16 0.00 0.00
7:53 pm 19:53 Sunny 66 18.9 21 -6.1 18 18 W 7 11 29.75 1007 10 16 0.00 0.00
8:53 pm 20:53 Clear 58 14.4 21 -6.1 24 24 W 5 7 29.75 1007 10 16 0.00 0.00
9:53 pm 21:53 Clear 58 14.4 18 -7.8 21 21 WNW 6 9 29.75 1007 10 16 0.00 0.00
10:53 pm 22:53 Clear 50 10 23 -5 35 35 SW 7 11 29.77 1008 10 16 0.00 0.00
11:53 pm 23:53 Partly Cloudy 57 13.9 21 -6.1 25 25 SW 7 11 29.73 1007 10 16 0.00 0.00

Powered by AerisWeather